This is the latest recevied weather packets stored in our database for station/object W5ALL-WX. If no packets are shown the sender has not sent any weather packets the latest 10 day(s).
| Time | Temp. | Humidity | Pressure | Rain* | Wind** | Luminosity | Snow |
|---|---|---|---|---|---|---|---|
| 1777444028 | 22.78° C | 7% | 1016.3 hPa | 0 mm | - | - | - |
| 1777443728 | 22.22° C | 7% | 1016.2 hPa | 0 mm | - | - | - |
| 1777443428 | 22.22° C | 8% | 1016.2 hPa | 0 mm | - | - | - |
| 1777443128 | 21.67° C | 8% | 1016.3 hPa | 0 mm | - | - | - |
| 1777442828 | 21.11° C | 9% | 1016.3 hPa | 0 mm | - | - | - |
| 1777442528 | 21.67° C | 8% | 1016.3 hPa | 0 mm | - | - | - |
| 1777442228 | 22.22° C | 8% | 1016.3 hPa | 0 mm | - | - | - |
| 1777441928 | 22.78° C | 7% | 1016.4 hPa | 0 mm | - | - | - |
| 1777441628 | 22.78° C | 7% | 1016.3 hPa | 0 mm | - | - | - |
| 1777441328 | 22.78° C | 7% | 1016.6 hPa | 0 mm | - | - | - |
| 1777441028 | 22.22° C | 7% | 1016.4 hPa | 0 mm | - | - | - |
| 1777440728 | 22.22° C | 8% | 1016.6 hPa | 0 mm | - | - | - |
| 1777440428 | 22.22° C | 8% | 1016.7 hPa | 0 mm | - | - | - |
| 1777440128 | 22.22° C | 8% | 1016.6 hPa | 0 mm | - | - | - |
| 1777439828 | 22.78° C | 7% | 1016.6 hPa | 0 mm | - | - | - |
| 1777439528 | 22.78° C | 7% | 1016.6 hPa | 0 mm | - | - | - |
| 1777439228 | 22.22° C | 7% | 1016.6 hPa | 0 mm | - | - | - |
| 1777438928 | 22.22° C | 8% | 1016.6 hPa | 0 mm | - | - | - |
| 1777438628 | 21.67° C | 8% | 1016.7 hPa | 0 mm | - | - | - |
| 1777438328 | 21.67° C | 9% | 1016.8 hPa | 0 mm | - | - | - |
| 1777438028 | 21.67° C | 9% | 1016.6 hPa | 0 mm | - | - | - |
| 1777437728 | 21.67° C | 9% | 1016.7 hPa | 0 mm | - | - | - |
| 1777437428 | 21.11° C | 10% | 1016.6 hPa | 0 mm | - | - | - |
| 1777437128 | 20° C | 11% | 1016.4 hPa | 0 mm | - | - | - |
| 1777436828 | 18.89° C | 13% | 1016.6 hPa | 0 mm | - | - | - |
* Rain latest hour (hover to see other rain measurements)
** Current wind speed in m/s (hover to see current wind gust speed)